{"data":{"norad_id":49728,"intl_designator":"2021-115E","name":"STARLINK-3240","alt_names":[],"object_type":"PAYLOAD","status":"ACTIVE","operator":null,"country":"US","launch_date":"2021-12-02","launch_site_code":"AFETR","launch_vehicle":null,"mission":null,"orbit_class":"UNKNOWN","rcs_meters":null,"size_class":null,"mass_kg":null,"dimensions":null,"purposes":["comms"],"wikipedia_slug":null,"has_3d_model":false,"image_url":null,"decayed_at":null,"tle_current":{"epoch":"2026-05-25T01:47:40.159104Z","epoch_age_seconds":61919,"freshness":"FRESH","line1":"1 49728U 21115E   26145.07477036  .00000025  00000+0  19674-4 0  9999","line2":"2 49728  53.2129 176.2137 0001048  74.0719 286.0388 15.08835924246925","mean_motion":15.08835924,"eccentricity":0.0001048,"inclination_deg":53.2129,"raan_deg":176.2137,"arg_perigee_deg":74.0719,"mean_anomaly_deg":286.0388,"bstar":1.9674e-5,"rev_number":24692,"period_min":95.437812494714,"perigee_km":539.03085252308,"apogee_km":540.48084286396,"semimajor_km":6917.8928476935,"source":"CELESTRAK","updated_at":"2026-05-25T13:38:16.831500Z"}}}